User: anonymous   Login
Location: Unspecified
(0.0000°N, 0.0000°E)
Time: 22:58:47
(UTC+00:00)
Language:

AUBIESAT-1 - Orbit

View from above orbital plane
View from above orbital plane
View from above satellite
View from above satellite

Ground track
Ground track

The orbit data is extracted from the following two-line orbital elements,

1 37854U 11061E   15058.73946749  .00005525  00000-0  33785-3 0  9990
2 37854 101.7154 219.0762 0197489 030.6832 091.7287 14.96214901180847
Epoch (UTC): 27 February 2015 17:44:49
Eccentricity: 0.0197489
inclination: 101.7154°
perigee height: 441 km
apogee height: 716 km
right ascension of ascending node: 219.0762°
argument of perigee: 30.6832°
revolutions per day: 14.96214901
mean anomaly at epoch: 91.7287°
orbit number at epoch: 18084

The dashed part of the orbit path shows where the satellite is in the earth's shadow,  

DLR